www.pogodaiklimat.ru

Погода и климат >> Архив погоды >> Аргентина >> Формоса


ПОГОДА в Формосе

  • Прогноз погоды в Формосе
  • Монитор погоды в Формосе

АРХИВ ПОГОДЫ в Формосе

Время (UTC), дата Ветер
(напр.,м/с)
 
Видим.   Явления Облачность Т
(С)
Тd
(С)
f
(%)
Тe
(С)
Тes
(С)
Комфортность P
(гПа)
Po
(гПа)
Тmin
(С)
Tmax
(С)
R
(мм)
R24
(мм)
S
(см)
09 11.02 СВ 4 20 км ясно +25.1 +24.2 95 +35 +35 очень
душно
1003.4 996.6
12 11.02 С 7 20 км 4/0
[Ci sp]
+29.5 +24.7 75 +42 +44 опасность
перегрева
1004.5 997.7 +24.2 +29.5
15 11.02 С 5 20 км 3/0
[Ac trans Ci sp]
+34.8 +26.3 61 +51 +59 опасность
перегрева
1005.1 998.4
18 11.02 С 6 20 км 5/3 600 м
[Cu hum Ac trans Ci sp]
+36.8 +26.1 54 +52 +56 опасность
перегрева
1003.7 997.0
21 11.02 С 2 20 км 8/6 600 м
[Cu Sc As op]
+36.2 +26.4 57 +52 +53 опасность
перегрева
1003.1 996.4
00 12.02 В 3 20 км гроза без осадков 10/4 750 м
[Cb cap As op]
+25.2 +24.2 94 +35 +35 очень
душно
1007.5 1000.6 +24.4 +37.8 0.3
03 12.02 ЮВ 6 8000 м гроза, ливневой дождь 10/6 210 м
[Cb cap As op]
+22.5 +22.2 98 +30 +30 очень
душно
1009.0 1002.2
06 12.02 С 2 10 км гроза, ливневой дождь 10/8 600 м
[Cb cap As op]
+24.0 +23.1 95 +32 +32 очень
душно
1011.6 1004.8 13
09 12.02 ЮВ 2 9000 м гроза, ливневой дождь 10/5 600 м
[Cb cap As op]
+23.7 +23.4 98 +32 +32 очень
душно
1013.5 1006.6
12 12.02 Ю 6 6000 м слаб. дождь {гроза} 10/5 240 м
[Frnb As op]
+23.8 +22.9 95 +32 +32 очень
душно
1017.0 1010.0 +23.1 +25.2 18
15 12.02 Ю 5 8000 м слаб. дождь 10/8 240 м
[Frnb As op]
+23.0 +21.8 93 +31 +32 очень
душно
1019.5 1012.5
18 12.02 Ю 9 20 км {дождь} 10/8 450 м
[Sc As op]
+23.8 +21.1 85 +30 +30 очень
душно
1018.1 1011.0 4
21 12.02 Ю 7 20 км 6/5 450 м
[Sc Ac As]
+25.4 +20.1 72 +31 +31 очень
душно
1016.3 1009.3
00 13.02 Ю 5 20 км ясно +22.3 +17.7 75 +27 +27 душно 1018.6 1011.6 +22.3 +26.2
03 13.02 Ю 2 20 км ясно +19.6 +18.2 92 +23 +23 комфорт 1019.7 1012.6
06 13.02 ЮЗ 1 20 км ясно +18.2 +17.4 95 +20 +20 1018.0 1011.0
09 13.02 Ю 3 20 км ясно +17.2 +16.5 96 +17 +17 1017.0 1010.0
12 13.02 Ю 6 20 км ясно +20.1 +16.8 81 +23 +26 комфорт 1016.9 1009.8 +16.6 +22.3 4
15 13.02 Ю 3 20 км ясно +25.9 +18.4 63 +31 +47 очень
душно
1015.8 1008.8
18 13.02 ЮВ 3 20 км 1/1 900 м
[Cu hum]
+28.1 +18.9 57 +33 +45 очень
душно
1013.3 1006.2
21 13.02 Ю 4 20 км ясно +28.1 +18.0 54 +33 +34 очень
душно
1011.7 1004.6
00 14.02 Ю 2 20 км 1/0
[Ac As]
+23.5 +19.7 79 +29 +29 душно 1011.9 1004.9 +20.1 +29.4
03 14.02 Ю 3 20 км ясно +21.6 +18.9 85 +26 +26 душно 1012.2 1005.3
06 14.02 Ю 2 20 км 9/9 600 м
[Sc]
+21.6 +19.1 86 +27 +27 душно 1012.1 1005.2
09 14.02 ЮЗ 3 20 км 9/0
[Ac As]
+21.3 +19.8 91 +26 +26 душно 1011.9 1005.0
12 14.02 Ю 5 8000 м слаб. дождь 10/5 660 м
[Sc As op]
+20.7 +19.9 95 +25 +26 комфорт 1013.4 1006.4 +20.2 +23.5 1
15 14.02 ЮВ 4 20 км {дождь} 9/4 750 м
[Sc Ac As]
+26.0 +22.2 80 +34 +38 очень
душно
1012.6 1005.7
18 14.02 Ю 3 20 км {дождь} 9/5 540 м
[Sc Ac As]
+28.1 +22.3 71 +37 +40 очень
душно
1010.9 1004.0 0.0
21 14.02 Ю 4 20 км 10/6 540 м
[Sc Ac As]
+28.3 +22.2 70 +37 +37 очень
душно
1009.6 1002.6
00 15.02 ЮЗ 3 20 км 8/0
[Ac trans]
+25.0 +20.8 78 +31 +31 очень
душно
1011.1 1004.1 +20.7 +30.0
03 15.02 ЮЗ 2 20 км ясно +22.4 +19.9 86 +29 +29 очень
душно
1012.1 1005.0
06 15.02 З 2 20 км ясно +20.5 +19.7 95 +26 +26 душно 1010.6 1003.6
09 15.02 З 3 20 км ясно +19.8 +18.7 93 +23 +23 комфорт 1010.6 1003.6
12 15.02 ЮЗ 5 20 км 1/0
[Ac As]
+24.1 +20.6 81 +30 +33 очень
душно
1011.5 1004.6 +19.0 +25.0 0.0
15 15.02 Ю 7 20 км 8/8 750 м
[Cu Sc]
+28.4 +19.4 58 +34 +35 очень
душно
1011.3 1004.4
18 15.02 ЮЗ 7 20 км 9/9 750 м
[Cu Sc]
+28.4 +18.6 55 +33 +34 очень
душно
1010.5 1003.6
21 15.02 Ю 6 20 км 1/1 750 м
[Cu hum]
+28.8 +18.1 52 +33 +34 очень
душно
1009.2 1002.2
00 16.02 ЮЗ 2 20 км ясно +25.6 +17.6 61 +30 +30 душно 1010.3 1003.4 +24.1 +30.5
03 16.02 ЮЗ 3 20 км ясно +21.9 +18.1 79 +27 +27 душно 1011.4 1004.5
06 16.02 ЮЗ 3 20 км ясно +21.1 +19.2 89 +26 +26 душно 1010.7 1003.8
09 16.02 Ю 4 20 км ясно +20.1 +19.5 96 +24 +24 комфорт 1010.5 1003.6
12 16.02 Ю 5 20 км 8/8 540 м
[Sc]
+23.1 +19.1 78 +29 +30 очень
душно
1011.5 1004.6 +19.3 +25.6
15 16.02 Ю 5 20 км 9/9 540 м
[Sc]
+26.0 +20.6 72 +32 +33 очень
душно
1011.5 1004.6
18 16.02 Ю 7 20 км 10/10 540 м
[Sc]
+27.4 +19.3 61 +33 +33 очень
душно
1010.2 1003.3
21 16.02 Ю 8 20 км 3/3 600 м
[Sc]
+27.2 +20.1 65 +33 +34 очень
душно
1009.1 1002.2
00 17.02 ЮЗ 2 20 км 3/0
[Ci sp]
+24.0 +20.8 82 +30 +30 очень
душно
1010.0 1003.0 +23.1 +29.0
03 17.02 Ю 3 20 км 1/0
[Ac trans]
+22.5 +20.7 90 +29 +29 очень
душно
1010.2 1003.3
06 17.02 Ю 2 20 км ясно +21.3 +21.0 98 +27 +27 душно 1009.3 1002.4
09 17.02 Ю 2 20 км ясно +21.3 +20.8 97 +27 +27 душно 1008.5 1001.6
12 17.02 ЮВ 4 20 км 1/1 300 м
[Frnb]
+24.9 +22.2 85 +32 +36 очень
душно
1010.3 1003.4 +20.4 +24.9
15 17.02 В 4 20 км 5/5 600 м
[Sc]
+28.6 +21.9 67 +37 +44 очень
душно
1010.4 1003.4
18 17.02 Ю 4 20 км в посл. час ливневой дождь 8/8 900 м
[Cu med, cong]
+24.5 +23.0 91 +32 +35 очень
душно
1008.9 1002.0 2
21 17.02 ЮВ 6 20 км 5/5 900 м
[Cu hum]
+30.7 +21.6 58 +39 +39 очень
душно
1006.8 999.8
00 18.02 Ю 3 20 км ясно +26.5 +21.9 76 +34 +34 очень
душно
1008.4 1001.4 +24.5 +31.6
03 18.02 В 3 20 км ясно +24.8 +21.8 83 +32 +32 очень
душно
1009.3 1002.4
06 18.02 штиль 0 20 км ясно +22.6 +21.7 95 +30 +30 очень
душно
1008.1 1001.2

 

Местоположение метеостанции Формоса (Аргентина): широта -26.20 долгота -58.23 высота над уровнем моря 60 м.

В архиве по умолчанию представлена погода в Формосе за последнюю неделю. Архивные данные за месяц целиком и за предыдущие месяцы, начиная с января 2011 года, Вы можете получить, выбрав интересующий диапазон дат из раскрывающегося списка и нажав кнопку "Ввод!".


*Определитесь, кто Вы:
робот инопланетянин человек

Внимание! Время в таблицах - всемирное. Для получения местного времени необходимо прибавить поправку, которая равна -3 ч.

Смотрите также архив погоды в соседних городах и на ближайших метеорологических станциях:

Погода в Пиларе (Парагвай) (73 км)
Погода в Сан Хуан Батистута (Парагвай) (119 км)
Погода в Куйкуйо (Парагвай) (125 км)
Погода в Парагуари (Парагвай) (127 км)
Погода в Асунсьоне (Парагвай) (128 км)
Погода в Корриентесе (Аргентина) (149 км)
Погода в Ресистенсии (Аргентина) (161 км)
Погода в Грал Бругуез (Парагвай) (171 км)
Погода в Вильяррике (Парагвай) (187 км)
Погода в Каасапе (Парагвай) (188 км)

Пояснения к столбцам:

Ветер - указаны скорость ветра в м/с - средняя за 10 мин, порывы в срок и между сроками (в фигурных скобках) и направление, откуда дует ветер: С - северный, СВ - северо-восточный, В - восточный, ЮВ - юго-восточный, Ю - южный, ЮЗ - юго-западный, З - западный, СЗ - северо-западный.
Видимость - горизонтальная дальность видимости в метрах или километрах. При видимости от 1 до 10 км при отсутствии осадков обычно наблюдается дымка, при ухудшении видимости до 1 км и менее - туман. В сухую погоду видимость может ухудшаться дымом, пылью или мглою.
Явления - указаны атмосферные явления, наблюдавшиеся в срок или в последний час перед сроком; фигурными скобками обозначены явления, наблюдавшиеся между сроками (за 1-3 часа до срока); квадратными скобками обозначены град или гололедные отложения с указанием их диаметра в мм.
Облачность - указаны через наклонную черту общая и нижняя облачность в баллах и высота нижней границы облаков в метрах; квадратными скобками обозначены формы облаков: Ci - перистые, Cs - перисто-слоистые, Cc - перисто-кучевые, Ac - высококучевые, As - высокослоистые, Sc - слоисто-кучевые, Ns - слоисто-дождевые, Cu - кучевые, Cb - кучево-дождевые. Подробнее классификацию облаков см. в Атласе облаков (PDF).
T - Температура воздуха - температура, измеренная на высоте 2 м над землей.
Td - Температура точки росы - температура, при понижении до которой содержащийся в воздухе водяной пар достигнет насыщения.
f - Относительная влажность воздуха - влажноcть воздуха, измеренная на высоте 2 м над землей.
Te - Эффективная температура - температура, которую ощущает одетый по сезону человек в тени. Характеристика душности погоды. При расчете учитывается влияние влажности воздуха и скорости ветра на теплоощущения человека.
Tes - Эффективная температура на солнце - температура, которую ощущает человек, с поправкой на солнечный нагрев. Характеристика знойности погоды. Зависит от высоты солнца над горизонтом, облачности и скорости ветра. Ночью, в пасмурную погоду, а также при ветре 12 м/с и более поправка равна нулю.
P - Атмосферное давление - приведенное к уровню моря атмосферное давление.
Po - Атмосферное давление - измеренное на уровне метеостанции атмосферное давление.
Tmin - Минимальная температура - минимум температуры воздуха на высоте 2 м над землей.
Tmax - Максимальная температура - максимум температуры воздуха на высоте 2 м над землей.
R - Количество осадков - Количество выпавших осадков за период времени, мм. При наведении курсора мыши на число - период времени, за который выпало указанное количество осадков.
R24 - Количество осадков - Количество выпавших осадков за 24 часа, мм.
S - Снежный покров - Высота снежного покрова, см. При наведении курсора мыши на число - состояние снежного покрова и степень покрытия местности в баллах.